Location: Châteauvieux
(47.2310°N, 1.3828°E)
Time: 23:16:33
(UTC+00:00)

NOSS 3-3 (C) - Pass Details

Date: 15 May 2026
Orbit: 697 x 1516 km, 63.4° (Epoch: 11 January)

Event Time Altitude Azimuth Distance (km) Brightness Sun altitude
Rises 20:28:03 0° 217° (SW) 3,142 6.6 -9.6°
Reaches altitude 10° 20:30:15 10° 217° (SW) 2,278 5.9 -9.9°
Maximum altitude 20:35:26 88° 128° (SE) 847 3.7 -10.5°
Drops below altitude 10° 20:41:41 10° 40° (NE) 2,724 6.4 -11.3°
Sets 20:44:32 0° 41° (NE) 3,807 7.2 -11.6°
